Cloud_Cover
5 49 21 0 1 84 100 23 5 0 0 0 0 0 0 0 0 0 0 0 1 1 0 0 0 0 9 34 32 100 100 100 100 100 100 100 100 97 88 100 100 100 99 100
23 90 0 17 97 100 100 79 11 2 0 0 0 0 0 0 0 0 0 0 21 5 6 1 0 0 0 47 9 63 93 100 100 76 99 100 97 91 100 100 100 100 77 89
62 2 40 100 99 100 100 46 96 2 0 0 0 0 0 0 0 0 58 0 3 16 11 3 0 5 37 62 23 0 27 100 100 78 100 100 100 98 100 100 57 86 23 3
100 50 28 100 98 100 100 9 92 2 0 0 0 0 0 0 0 0 4 5 56 5 0 5 5 50 32 73 48 34 0 99 100 100 100 100 92 96 100 99 100 44 93 100
96 97 100 100 100 100 100 100 92 0 0 0 0 0 0 0 0 0 4 5 58 63 13 5 5 13 14 28 20 3 0 50 100 100 100 95 100 100 100 98 61 98 82 51
65 96 100 100 100 100 100 99 91 0 0 0 0 0 0 0 0 4 28 4 89 12 98 3 1 0 1 13 0 0 0 0 99 100 95 88 39 62 69 62 100 98 90 100
21 99 100 100 100 23 54 99 75 4 0 0 0 0 0 0 0 0 3 2 5 98 45 78 18 100 23 8 0 0 0 1 24 100 100 100 99 95 91 100 100 100 99 96
5 91 100 100 39 37 49 17 85 0 5 0 0 0 0 0 0 0 0 0 24 38 100 100 100 100 100 100 0 0 0 2 3 75 100 100 100 100 100 100 100 100 100 100
100 100 100 100 98 100 100 100 70 27 5 0 0 0 0 0 0 0 0 6 81 93 5 99 100 100 100 20 9 25 27 26 89 88 83 100 100 100 100 100 100 100 100 100
100 100 100 45 100 65 100 100 98 1 0 0 0 0 0 0 0 0 0 26 13 79 5 100 79 100 100 88 4 0 68 100 100 100 79 60 100 100 100 100 100 100 100 100
100 71 100 100 100 100 82 84 7 0 0 0 0 0 0 0 0 0 0 0 0 4 82 74 50 100 100 40 61 2 100 100 100 100 100 100 68 100 100 100 100 100 100 100
100 99 49 64 100 32 22 4 0 0 0 0 0 0 0 0 0 0 0 0 0 98 6 69 96 96 100 28 100 77 100 100 100 100 87 96 100 6 98 100 100 100 100 100
100 93 78 30 38 11 5 5 0 0 1 0 0 0 0 0 0 0 0 0 1 2 46 84 98 75 66 17 53 100 100 98 100 100 94 92 100 100 100 83 98 100 48 76
94 100 86 67 86 12 5 8 74 34 94 0 0 0 0 0 0 0 0 0 100 34 28 71 5 100 100 90 86 100 100 95 100 100 84 77 100 76 98 100 100 100 24 18
4 3 89 100 73 46 99 100 100 96 5 0 0 0 1 0 0 0 0 0 80 1 1 24 61 100 100 100 100 98 100 98 99 100 73 7 5 46 26 50 99 89 26 100
96 98 100 100 100 100 100 100 98 5 0 0 0 0 0 0 0 1 0 0 56 9 2 11 52 70 100 93 100 100 100 100 100 98 100 6 47 100 82 40 98 100 100 98
100 100 100 97 100 98 100 88 56 5 0 0 0 0 0 0 0 4 0 0 1 97 100 100 36 66 100 100 100 100 100 100 100 100 83 22 100 100 100 88 55 65 33 75
64 37 7 60 53 100 100 100 23 0 0 1 94 89 23 0 3 58 98 87 17 100 64 100 92 100 100 100 100 100 100 100 100 100 100 100 100 100 100 100 100 92 55 43
88 66 84 100 100 100 100 100 30 0 0 33 100 100 8 1 100 100 93 100 100 100 77 23 38 98 100 100 100 100 100 100 100 100 100 100 100 100 100 100 100 100 87 100
93 6 5 59 100 100 15 12 23 0 0 6 100 34 0 82 100 100 100 100 100 100 100 100 90 100 100 100 100 100 100 100 100 100 100 100 100 100 100 100 100 100 100 100
96 5 74 93 32 19 88 73 5 3 51 100 97 53 97 100 100 100 100 100 100 100 100 100 100 100 100 100 100 100 100 100 100 100 100 100 100 100 100 100 100 100 100 100
98 96 98 45 5 6 94 83 3 3 64 37 100 100 100 100 100 100 100 100 100 100 100 100 100 100 100 100 100 100 100 100 100 100 100 100 100 100 100 100 100 100 100 100
71 5 5 26 4 4 40 84 5 5 9 43 100 100 100 100 100 100 100 100 100 100 100 100 100 100 100 99 100 100 100 100 100 100 100 100 100 100 100 100 100 100 100 100
5 0 0 2 62 69 12 92 5 5 5 57 100 100 100 100 100 100 100 100 76 100 100 76 98 100 100 100 100 100 100 100 100 100 100 100 100 100 100 100 100 100 100 100
5 5 2 0 48 74 41 92 91 50 33 83 100 100 100 100 100 100 100 100 100 80 100 64 96 100 100 100 100 89 100 100 100 100 100 100 100 100 100 100 100 100 100 100
6 4 0 4 4 19 70 100 99 90 100 100 100 100 100 100 100 100 100 100 100 100 100 100 100 100 100 100 100 98 87 100 100 100 100 100 100 100 100 100 100 100 100 100